STARLINK-34533 (64715 NORAD) Tracking and Keplerian Element Data

This shows tracking and keplerian element data for the satellite.

Feedback or suggestion? Click here.




ElementValue
Catalog64715
NameSTARLINK-34533
Epoch Orbit2755
Epoch Day354.19472154
Epoch Year2025
RAAN154.8733
Inclination70.0003
Eccentricity0.0002781
Argument of Perigee269.8581
Mean Anonmoly90.226
Mean Motion14.98333229
Decay Rate2.49E-05
L11 64715U 25142V 25354.19472154 .00002490 00000+0 21640-3 0 9999
L22 64715 70.0003 154.8733 0002781 269.8581 90.2260 14.98333229 27555



Live tracking and technical data element details for STARLINK-34533 (NORAD 64715). STARLINK-34533 can be tracked NOW for your location showing map with azimuth and elevation plus other details from your city location.







IsCatalogInMostPopularTable: catalog: 64715, numindb: 5
Update: records affected: 1



GetName: 64715 STARLINK-34533

Hit Count: updated at: Sat, 07 Feb 2026 07:28:50 GMT